FW5707 Weather Reports


time (UTC)temp
C
wind
direction
speed
KPH
gust
KPH
rain 1hr
cm
rain 24hr
cm
rain mn
cm
humidity
%
barometer
mb
20260505153014 23 205 0.0 0.0 0.00 0.00 0.00 82 1010.7
20260505151558 23 302 0.0 0.0 0.00 0.00 0.00 83 1010.8
20260505124506 20 43 0.0 0.0 0.00 0.00 0.00 84 1010.7
20260505123044 20 342 0.0 0.0 0.00 0.00 0.00 84 1010.7
20260505121516 19 332 0.0 0.0 0.00 0.00 0.00 84 1010.6
20260505120055 19 267 0.0 0.0 0.00 0.00 0.00 84 1010.3
20260505114534 19 294 0.0 0.0 0.00 0.00 0.00 84 1010.2
20260505113105 19 113 0.0 0.0 0.00 0.00 0.00 83 1010.2
20260505111534 19 234 0.0 0.0 0.00 0.00 0.00 83 1010.1
20260505101546 19 264 0.0 0.0 0.00 0.00 0.00 82 1010.7
20260505100017 19 321 0.0 0.0 0.00 0.00 0.00 82 1010.6
20260505094542 18 272 0.0 0.0 0.00 0.00 0.00 82 1010.5
20260505093010 18 288 0.0 0.0 0.00 0.00 0.00 82 1010.4
20260505091557 18 71 0.0 0.0 0.00 0.00 0.00 82 1010.6
20260505090007 18 78 0.0 0.0 0.00 0.00 0.00 82 1010.7
20260505084552 18 31 0.0 0.0 0.00 0.00 0.00 82 1011.0
20260505083034 18 5 0.0 0.0 0.00 0.00 0.00 82 1011.1
20260505081605 18 183 0.0 0.0 0.00 0.00 0.00 81 1010.9
20260505080040 18 300 0.0 0.0 0.00 0.00 0.00 81 1010.9
20260505074613 18 319 0.0 0.0 0.00 0.00 0.00 82 1011.0
20260505073041 18 132 0.0 0.0 0.00 0.00 0.00 81 1011.0
20260505071512 18 86 0.0 0.0 0.00 0.00 0.00 81 1011.1
20260505070035 18 43 0.0 0.0 0.00 0.00 0.00 81 1011.4
20260505064503 18 69 0.0 0.0 0.00 0.00 0.00 82 1011.4
20260505063045 18 37 0.0 0.0 0.00 0.00 0.00 82 1011.7
20260505061526 18 299 0.0 0.0 0.00 0.00 0.00 81 1011.9
20260505060051 18 299 0.0 0.0 0.00 0.00 0.00 81 1011.9
20260505054521 18 299 0.0 0.0 0.00 0.00 0.00 81 1011.9
20260505053101 18 134 0.0 0.0 0.00 0.00 0.00 81 1012.0
20260505051535 18 171 0.0 0.0 0.00 0.00 0.00 80 1012.1
20260505041550 19 292 0.0 0.0 0.00 0.00 0.00 78 1012.7
20260505040020 20 157 0.0 0.0 0.00 0.00 0.00 78 1012.4
20260505034601 20 218 0.0 0.0 0.00 0.00 0.00 77 1012.3
20260505033045 20 218 0.0 0.0 0.00 0.00 0.00 77 1012.3
20260505031516 20 209 0.0 0.0 0.00 0.00 0.00 76 1012.2
20260505030054 20 209 0.0 0.0 0.00 0.00 0.00 75 1012.1
20260505024547 20 184 0.0 0.0 0.00 0.00 0.00 75 1012.0
20260505023102 21 236 0.0 0.0 0.00 0.00 0.00 74 1011.8
20260505021546 21 277 0.0 0.0 0.00 0.00 0.00 73 1011.8
20260505020027 21 261 0.0 0.0 0.00 0.00 0.00 73 1011.5
20260505014559 21 245 0.0 0.0 0.00 0.00 0.00 72 1011.5
20260505013044 22 155 0.0 0.0 0.00 0.00 0.00 71 1011.4
20260505011512 22 245 0.0 0.0 0.00 0.00 0.00 70 1011.5
20260505010054 22 347 0.0 0.0 0.00 0.00 0.00 69 1011.4
20260505004529 23 221 0.0 0.0 0.00 0.00 0.00 68 1011.5
20260505003104 23 246 0.0 0.0 0.00 0.00 0.00 67 1011.4
20260505001527 23 242 0.0 0.0 0.00 0.00 0.00 66 1011.4
20260505000112 24 224 0.0 0.0 0.00 0.00 0.00 64 1011.4
20260504234537 25 346 0.0 0.0 0.00 0.00 0.00 63 1011.5
20260504233007 25 78 0.0 0.0 0.00 0.00 0.00 61 1011.9
20260504231538 25 228 0.0 0.0 0.00 0.00 0.00 61 1012.1
20260504230010 26 229 0.0 0.0 0.00 0.00 0.00 60 1012.2
20260504224550 26 210 0.0 0.0 0.00 0.00 0.00 59 1012.3
20260504223017 26 278 0.0 0.0 0.00 0.00 0.00 58 1012.4
20260504221609 26 265 0.0 0.0 0.00 0.00 0.00 57 1012.6
20260504220052 27 209 0.0 0.0 0.00 0.00 0.00 57 1012.7
20260504214508 27 202 0.0 0.0 0.00 0.00 0.00 55 1012.9
20260504213039 27 259 0.0 0.0 0.00 0.00 0.00 56 1013.0
20260504211508 26 192 0.0 0.0 0.00 0.00 0.00 59 1013.1
20260504210047 26 222 0.0 0.0 0.00 0.00 0.00 58 1013.5
20260504204541 26 236 0.0 0.0 0.00 0.00 0.00 62 1013.6
20260504203107 26 198 0.0 0.0 0.00 0.00 0.00 60 1013.7
20260504201536 26 254 0.0 0.0 0.00 0.00 0.00 56 1014.0
20260504200115 26 261 0.0 0.0 0.00 0.00 0.00 55 1014.4
20260504194539 26 259 0.0 0.0 0.00 0.00 0.00 56 1014.6
20260504193109 26 250 0.0 0.0 0.00 0.00 0.00 56 1014.8
20260504191530 26 232 0.0 0.0 0.00 0.00 0.00 55 1015.1
20260504190010 26 123 0.0 0.0 0.00 0.00 0.00 59 1015.2
20260504184555 26 250 0.0 0.0 0.00 0.00 0.00 53 1015.4
20260504183019 25 236 0.0 0.0 0.00 0.00 0.00 56 1015.8
20260504181505 25 240 0.0 0.0 0.00 0.00 0.00 56 1015.9
20260504180023 26 214 0.0 0.0 0.00 0.00 0.00 54 1015.8
20260504174557 25 167 0.0 0.0 0.00 0.00 0.00 50 1016.1
20260504173024 25 313 0.0 0.0 0.00 0.00 0.00 51 1016.4
20260504171556 24 257 0.0 0.0 0.00 0.00 0.00 53 1016.7